Regional Weather Roundup
Issued by NWS Wilmington, NC

Home | Current Version | Previous Version | Text Only | Print | Product List | Glossary On
Versions: 1 2 3 4 5 6 7 8 9 10 11 12 13 14 15 16 17 18 19 20 21 22 23 24 25 26 27
000
ASUS42 KILM 251313
RWRILM
RWRILM
REGIONAL HOURLY WEATHER ROUNDUP
NATIONAL WEATHER SERVICE WILMINGTON NC
900 AM EDT MON JUL 25 2016

NOTE: "FAIR" INDICATES FEW OR NO CLOUDS BELOW 12,000 FEET WITH NO
SIGNIFICANT WEATHER AND/OR OBSTRUCTIONS TO VISIBILITY.

...............WFO WILMINGTON COUNTY WARNING AREA...............

......COASTAL NC AND SC COUNTIES......

CITY           SKY/WX    TMP DP  RH WIND       PRES   REMARKS
WILMINGTON     SUNNY     84  76  76 SW10      30.09R HX  93
N MYRTLE BEACH MOSUNNY   84  76  76 SW9       30.08S HX  93
MYRTLE BEACH   MOSUNNY   86  72  62 SW8       30.11  HX  92

......INLAND NC AND SC COUNTIES.......

CITY           SKY/WX    TMP DP  RH WIND       PRES   REMARKS
LUMBERTON      SUNNY     82  76  81 SW7       30.07S
ELIZABETHTOWN  SUNNY     82  76  82 SW7       30.09R HX  90
WHITEVILLE     SUNNY     83  76  80 SW6       30.09R HX  91
FLORENCE       MOSUNNY   83  73  72 SW12      30.09R
DARLINGTON     MOSUNNY   81  75  82 SW7       30.08S
KINGSTREE      FAIR      81  73  78 S5        30.09S
HARTSVILLE     FAIR      79  73  83 SW3       30.08S
BENNETTSVILLE  FAIR      82  77  83 SW7       30.08R HX  91
CONWAY         FAIR      81  75  83 SW7       30.09S
GEORGETOWN     FAIR      82  75  78 SW6       30.11R
MARION           N/A     81  73  78 SW7       30.09R

....................REST OF NORTH CAROLINA......................

.........EASTERN NC.........

CITY           SKY/WX    TMP DP  RH WIND       PRES   REMARKS
CAPE HATTERAS  SUNNY     84  76  76 W8G17     30.08S HX  93
JACKSONVILLE   MOSUNNY   85  78  80 SW9       30.09S HX  96
MOREHEAD CITY  SUNNY     84  76  76 W9        30.08S HX  93
KENANSVILLE    NOT AVBL
NEW BERN       SUNNY     84  77  79 SW8       30.09S HX  94
ELIZABETH CITY MOSUNNY   84  77  79 SW9       30.04F HX  94

.........CENTRAL NC.........

CITY           SKY/WX    TMP DP  RH WIND       PRES   REMARKS
RALEIGH DURHAM MOSUNNY   83  76  79 SW8       30.06S HX  91
ROCKY MOUNT    MOSUNNY   81  78  91 SW7       30.06S
ROANOKE RAPIDS NOT AVBL
FAYETTEVILLE   SUNNY     85  74  69 SW12      30.07R HX  92
HOFFMAN        SUNNY     82  75  78 S7        30.08R

.........WESTERN NC.........

CITY           SKY/WX    TMP DP  RH WIND       PRES   REMARKS
CHARLOTTE      MOSUNNY   83  71  67 W7        30.09R
GREENSBORO     MOSUNNY   83  73  72 SW9       30.07R
HICKORY        NOT AVBL
BOONE          NOT AVBL
ASHEVILLE      NOT AVBL

.....................REST OF SOUTH CAROLINA.....................

.........EASTERN SC.........

CITY           SKY/WX    TMP DP  RH WIND       PRES   REMARKS
CHARLESTON     MOSUNNY   85  76  74 NW3       30.09S HX  94
BEAUFORT MCAS  MOSUNNY   86  74  67 SW6       30.10R HX  94
HILTON HEAD    MOSUNNY   90  77  66 W6        30.10R HX 102

.........CENTRAL SC.........

CITY           SKY/WX    TMP DP  RH WIND       PRES   REMARKS
COLUMBIA       PTSUNNY   85  71  63 SW8       30.07S HX  90
ORANGEBURG     SUNNY     82  73  74 SW7       30.09R
SUMTER SHAW    NOT AVBL

.........WESTERN SC.........

CITY           SKY/WX    TMP DP  RH WIND       PRES   REMARKS
GREENVILLE     NOT AVBL
ROCK HILL      PTSUNNY   79  72  79 SW6       30.09S
ANDERSON       SUNNY     82  72  71 SW3       30.08S
CLEMSON        NOT AVBL
GREENWOOD      SUNNY     82  69  64 SW6       30.10R


...................COASTAL AND OFFSHORE REPORTS..................

................LOCAL PIERS AND NC RESERVE................


STATION/POSITION TIME  SKY/WX   TEMP    WIND        PRES    VSBY
                                AIR SEA DIR/SP/G
                 (UTC)          (F)     (DEG/KT/KT) (MB)    (MI)
JOHNY MRCER PIER 1200            81 80  240/  6/  8 1017.8R
NC RESRV MASNBRO NOT AVBL
OCEAN CREST PIER NOT AVBL
SPRINGMAID  PIER 1200            83 84              1018.4R


................COASTAL AND OFFSHORE BUOYS................


STATION/POSITION TIME  SKY/WX   TEMP    WIND        PRES    VSBY
                                AIR SEA DIR/SP/G
                 (UTC)          (F)     (DEG/KT/KT) (MB)    (MI)
DIMNDSHOAL 41025 1250            84 85  260/ 12/ 14 1018.7R
WVE H/P(F/S)=  3/ 5 SWL H/P/D(F/S/D)=  2/120/ 8

CAPE LOOKOUT     1200            85     260/  9/ 12 1018.3S
ONSLOW BAY 41036 NOT AVBL
ONSLOW BAY 41064 1208            85 85  220/ 10/ 14 1018.7R
ONSLOW BAY 41159 1225               85                N/A
WVE H/P(F/S)=  3/ 4

5SE WRITBC 41038 NOT AVBL
MASNBO INL 41110 1206               83                N/A
WVE H/P(F/S)=  1/ 8

WILM HARBR 41108 1226               85                N/A
WVE H/P(F/S)=  3/ 4

27SE WRITB 41037 1208            84 84  250/  8/ 14 1019.0R
FRYING PAN 41013 1200            84 85  230/ 10/ 12 1019.0R
SUNST NRSH 41024 1208            83 83  250/ 10/ 14 1018.5R
CAPRS NRSH 41029 1208            84 83  240/  8/ 10 1018.8R
EDISTO     41004 1250            85 86  230/  6/  8 1018.8R
WVE H/P(F/S)=  2/ 9 SWL H/P/D(F/S/D)=  2/120/ 9



..........OFFSHORE BUOYS BEYOND 100 NM OFFSHORE...........
.....IN A TRIANGLE---HAT TO BERMUDA TO BAHAMAS TO HAT.....


STATION/POSITION TIME  SKY/WX   TEMP    WIND        PRES    VSBY
                                AIR SEA DIR/SP/G
                 (UTC)          (F)     (DEG/KT/KT) (MB)    (MI)
150E HAT   41001 NOT AVBL
W BERMUDA  41048 1250            83 84  230/  6/  6 1020.1R
WVE H/P(F/S)=  2/ 8 SWL H/P/D(F/S/D)=  2/120/ 8

ATLANTIC S 41049 1250            83 85  150/  6/  8 1021.6S
WVE H/P(F/S)=  3/ 7 SWL H/P/D(F/S/D)=  3/110/ 7

E BAHAMAS  41046 1200            83 85   90/ 14/ 16 1019.1R
NE BAHAMAS 41047 1200            84 85  140/  4/  6 1020.1R
120E CANVRL41010 1220            84 86  170/  4/  6 1018.8R

END




USA.gov is the U.S. government's official web portal to all federal, state and local government web resources and services.